www.pogodaiklimat.ru

Погода и климат >> Архив погоды >> Норвегия >> Берген


ПОГОДА в Бергене

  • Прогноз погоды в Бергене
  • Монитор погоды в Бергене

АРХИВ ПОГОДЫ в Бергене

Время (UTC), дата Ветер
(напр.,м/с)
 
Видим.   Явления Облачность Т
(С)
Тd
(С)
f
(%)
Тe
(С)
Тes
(С)
Комфортность P
(гПа)
Po
(гПа)
Тmin
(С)
Tmax
(С)
R
(мм)
R24
(мм)
S
(см)
16 16.08 Ю 5-7
{7}
н/о н/о +14.8 +10.1 73 +13 +13 1005.8 1001.6
17 16.08 ЮВ 5-8
{8}
н/о н/о +15.0 +8.5 65 +14 +14 1005.3 1001.1
18 16.08 ЮВ 5-7
{9}
н/о н/о +15.1 +8.6 65 +14 +14 1004.3 1000.1 +11.9 +16.9
19 16.08 ЮВ 5-10
{10}
н/о н/о +15.3 +8.4 63 +14 +14 1003.8 999.6
20 16.08 ЮВ 6-9
{10}
н/о н/о +15.2 +8.9 66 +14 +14 1003.4 999.2
21 16.08 ЮВ 5-8
{11}
30 км слаб. дождь 10/6 600 м
[Sc As trans]
+14.4 +9.9 74 +13 +13 1003.0 998.8
22 16.08 ЮВ 6-10
{14}
н/о н/о +14.6 +9.6 72 +13 +13 1001.9 997.7
23 16.08 ЮВ 8-12
{15}
н/о н/о +15.5 +8.9 65 +14 +14 1000.8 996.6
00 17.08 ЮВ 10-16
{16}
н/о н/о +16.2 +8.3 59 +14 +14 999.5 995.3
01 17.08 ЮВ 7-11
{17}
н/о н/о +15.5 +9.5 67 +14 +14 998.9 994.7
02 17.08 ЮВ 7-12
{13}
н/о н/о +14.6 +10.4 76 +13 +13 998.1 993.9
03 17.08 ЮВ 6-9
{11}
н/о н/о +14.0 +10.4 79 +12 +12 996.9 992.7
04 17.08 ЮВ 6-10
{10}
н/о н/о +14.6 +10.7 77 +13 +13 995.5 991.3
05 17.08 ЮВ 5-8
{11}
н/о н/о +14.9 +11.0 77 +13 +13 994.5 990.3
06 17.08 ЮВ 5-7
{17}
10 км слаб. дождь 10/8 300 м
[Sc As op]
+14.8 +11.4 80 +13 +13 994.1 989.8 +14.0 +16.5
07 17.08 Ю 4-7
{8}
н/о н/о +14.8 +11.8 82 +14 +14 993.6 989.4
08 17.08 Ю 4-7
{8}
н/о н/о +15.4 +12.2 81 +14 +14 992.7 988.5
09 17.08 ЮВ 5-8
{11}
9000 м дождь {морось} 10/9 300 м
[Frnb As op]
+15.7 +13.2 85 +14 +15 992.1 987.9
10 17.08 Ю 5-7
{9}
н/о н/о +15.6 +13.3 86 +14 +14 992.3 988.1
11 17.08 Ю 4-7
{8}
н/о н/о +15.7 +14.2 91 +15 +15 992.5 988.3
12 17.08 Ю 6-11
{11}
н/о в посл. час ливневой дождь н/о +17.2 +14.7 85 +16 +16 993.0 988.9
13 17.08 Ю 7-12
{13}
н/о н/о +17.9 +13.9 77 +17 +17 993.2 989.1
14 17.08 Ю 7-10
{15}
н/о н/о +17.7 +13.4 76 +17 +17 993.9 989.8
15 17.08 Ю 8-13
{13}
30 км осадки на расстоянии 8/6 600 м
[Cu med, cong Ac cuf]
+18.1 +13.0 72 +17 +18 994.4 990.3
16 17.08 Ю 6-10
{12}
н/о н/о +17.8 +12.1 69 +17 +17 994.7 990.6
17 17.08 Ю 5-12
{15}
н/о н/о +16.4 +12.8 79 +15 +15 995.2 991.0
18 17.08 Ю 6-10
{15}
25 км в посл. час ливневой дождь 9/8 600 м
[Cu med, cong Ac cuf]
+16.2 +12.3 78 +15 +15 995.3 991.1 +14.5 +18.3
19 17.08 ЮВ 4-6
{12}
н/о н/о +13.9 +12.1 89 +12 +12 996.2 992.0
20 17.08 ЮВ 4-7
{7}
н/о н/о +13.7 +11.6 87 +12 +12 997.1 992.9
21 17.08 ЮВ 4-6
{6}
25 км {ливн. осадки} 8/8 600 м
[Cu med, cong]
+13.0 +10.4 84 +11 +11 998.1 993.9
22 17.08 ЮВ 3-3
{6}
н/о н/о +12.5 +10.8 89 +11 +11 998.2 994.0
23 17.08 Ю 4-5
{5}
н/о н/о +12.9 +10.9 88 +11 +11 998.4 994.2
00 18.08 Ю 4-5
{12}
н/о н/о +12.7 +10.7 88 +11 +11 998.6 994.4
01 18.08 ЮВ 4-6
{6}
н/о н/о +12.6 +10.9 89 +11 +11 998.7 994.5
02 18.08 Ю 3-4
{7}
н/о н/о +12.4 +10.7 89 +11 +11 998.6 994.4
03 18.08 Ю 3-5
{6}
н/о н/о +12.9 +10.8 87 +11 +11 998.3 994.1
04 18.08 Ю 4-5
{6}
н/о н/о +13.4 +11.1 86 +12 +12 998.3 994.1
05 18.08 Ю 5-8
{8}
н/о н/о +14.1 +10.4 78 +12 +12 998.1 993.9
06 18.08 -12
{12}
30 км осадки на расстоянии {ливн. осадки} 8/5 300 м
[Cb cap Ci fib]
+15.0 +10.0 72 998.4 994.2 +12.3 +16.2
07 18.08 ЮВ 5-8
{11}
н/о н/о +15.1 +9.7 70 +14 +14 998.0 993.8
08 18.08 ЮВ 6-11
{12}
н/о н/о +15.1 +10.1 72 +14 +14 997.6 993.5
09 18.08 ЮВ 7-13
{15}
25 км слаб. ливневой дождь, в посл. час гроза 9/9 300 м
[Cb cap]
+15.2 +10.4 73 +13 +14 997.9 993.7
10 18.08 ЮВ 5-7
{14}
н/о н/о +16.2 +10.1 67 +15 +15 997.7 993.5
11 18.08 ЮВ 6-12
{12}
н/о н/о +17.2 +10.1 63 +16 +16 997.1 992.9
12 18.08 ЮВ 5-11
{15}
н/о н/о +17.7 +9.8 60 +17 +17 997.2 993.0
13 18.08 ЮВ 8-12
{16}
н/о н/о +17.4 +8.3 55 +16 +16 997.7 993.5
14 18.08 ЮВ 4-7
{13}
н/о н/о +16.3 +9.7 65 +16 +16 997.7 993.5
15 18.08 ЮВ 6-9
{11}
25 км слаб. ливневой дождь 9/9 600 м
[Cb cap]
+15.2 +11.1 77 +14 +14 997.6 993.4
16 18.08 ЮВ 5-9
{9}
н/о н/о +16.2 +10.7 70 +15 +15 997.2 993.0
17 18.08 Ю 6-9
{11}
н/о н/о +16.4 +9.8 65 +15 +15 997.1 992.9
18 18.08 Ю 5-8
{16}
35 км {ливн. осадки} 6/4 1000 м
[Cu med, cong Ac cuf]
+16.1 +9.9 67 +15 +15 996.9 992.7 +13.8 +18.2
19 18.08 ЮВ 4-6
{7}
н/о н/о +15.4 +9.7 69 +14 +14 996.5 992.3
20 18.08 ЮВ 3-5
{6}
н/о н/о +14.8 +9.7 71 +14 +14 996.6 992.4
21 18.08 ЮВ 4-8
{8}
25 км {ливн. осадки} 8/5 600 м
[Cu med, cong Ac cuf]
+14.8 +10.0 73 +14 +14 996.9 992.7
22 18.08 ЮВ 4-8
{9}
н/о н/о +13.9 +10.3 79 +12 +12 997.0 992.8
23 18.08 Ю 3-4
{10}
н/о н/о +13.6 +10.8 83 +12 +12 996.7 992.5
00 19.08 ЮВ 7-11
{11}
н/о н/о +14.2 +9.9 75 +12 +12 996.3 992.1
01 19.08 ЮВ 7-13
{13}
н/о н/о +14.0 +9.6 75 +12 +12 995.8 991.6
02 19.08 ЮВ 7-12
{15}
н/о н/о +13.7 +9.8 77 +11 +11 995.4 991.2
03 19.08 ЮВ 6-10
{12}
н/о н/о +13.0 +10.3 84 +11 +11 995.6 991.4
04 19.08 -7
{11}
н/о н/о +12.8 +10.7 87 995.5 991.3
05 19.08 -8
{10}
н/о н/о +12.7 +11.1 90 996.0 991.8
06 19.08 ЮВ 3-4
{15}
25 км слаб. ливневой дождь 10/9 200 м
[Cu Sc As op]
+12.5 +11.2 92 +11 +11 996.0 991.8 +12.3 +16.0
07 19.08 ЮВ 4-7
{8}
н/о н/о +13.4 +11.8 90 +12 +12 996.6 992.4
08 19.08 ЮВ 4-6
{7}
н/о н/о +14.8 +12.9 88 +14 +14 997.4 993.2
09 19.08 ЮВ 4-8
{8}
25 км в посл. час ливневой дождь 10/9 200 м
[Cb cap Ac As]
+15.1 +12.5 84 +14 +14 998.1 993.9
10 19.08 -7
{8}
н/о н/о +15.1 +11.9 81 998.8 994.6
11 19.08 Ю 4-6
{8}
н/о н/о +14.3 +11.8 85 +13 +13 1000.0 995.8
12 19.08 ЮВ 5-8
{8}
30 км {ливн. осадки} 10/9 200 м
[Cb cap Ac cuf]
+14.3 +11.7 84 +13 +13 1000.8 996.6
13 19.08 Ю 4-7
{9}
н/о н/о +14.6 +12.0 84 +13 +13 1001.6 997.4
14 19.08 ЮВ 4-6
{8}
н/о н/о +13.7 +11.6 87 +12 +12 1002.4 998.2
15 19.08 В 2-3
{6}
25 км слаб. ливневой дождь 10/10 300 м
[Cb cap]
+13.8 +12.0 89 +13 +13 1002.8 998.6
16 19.08 ЮВ 5-7
{10}
н/о н/о +14.7 +12.4 86 +13 +13 1003.3 999.1
17 19.08 ЮВ 4-7
{10}
н/о н/о +15.3 +12.2 82 +14 +14 1003.7 999.5
18 19.08 ЮВ 5-7
{10}
30 км {ливн. осадки} 9/8 300 м
[Cu Sc Ac trans]
+15.1 +11.8 81 +14 +14 1004.2 1000.0 +12.5 +15.7
19 19.08 Ю 6-9
{9}
н/о н/о +15.0 +11.2 78 +13 +13 1004.8 1000.6
20 19.08 ЮВ 5-8
{9}
н/о н/о +14.7 +11.1 79 +13 +13 1005.3 1001.1
21 19.08 ЮВ 4-6
{8}
30 км 8/6 600 м
[Cu Sc Ac trans]
+14.2 +11.5 84 +13 +13 1005.3 1001.1
22 19.08 ЮВ 4-6
{8}
н/о н/о +13.9 +11.8 87 +12 +12 1005.8 1001.6
23 19.08 ЮВ 6-10
{10}
н/о н/о +13.9 +11.9 88 +12 +12 1006.2 1002.0
00 20.08 ЮВ 5-8
{10}
н/о н/о +13.8 +11.9 88 +12 +12 1006.2 1002.0
01 20.08 ЮВ 4-6
{11}
н/о н/о +12.6 +10.4 86 +11 +11 1006.9 1002.6
02 20.08 В 2-3
{6}
н/о н/о +12.4 +10.9 91 +11 +11 1006.7 1002.5
03 20.08 ЮВ 3-7
{7}
н/о н/о +12.9 +11.2 89 +11 +11 1007.0 1002.7
04 20.08 ЮВ 4-6
{7}
н/о н/о +12.7 +11.3 91 +11 +11 1007.3 1003.0
05 20.08 ЮВ 3-4
{6}
н/о н/о +12.7 +11.3 91 +11 +11 1007.5 1003.2
06 20.08 ЮВ 4-6
{11}
30 км в посл. час ливневой дождь 10/10 200 м
[Cu Sc]
+13.3 +11.7 90 +12 +12 1008.0 1003.7 +12.3 +15.2
07 20.08 В 2-4
{6}
н/о н/о +13.4 +12.1 92 +13 +13 1008.2 1003.9
08 20.08 ЮВ 3-5
{5}
н/о н/о +13.8 +12.1 89 +13 +13 1008.9 1004.6
09 20.08 Ю 4-5
{7}
35 км {ливн. осадки} 9/8 200 м
[Cu Sc Ci fib]
+14.7 +12.6 87 +13 +14 1009.6 1005.3
10 20.08 З 2-5
{6}
н/о н/о +15.2 +12.2 82 +15 +15 1010.3 1006.1
11 20.08 З 3-5
{5}
н/о н/о +15.7 +11.3 75 +15 +15 1011.1 1006.9
12 20.08 З 3-6
{7}
28 км {ливн. осадки} 9/9 300 м
[Cu med, cong Ac cuf]
+16.3 +11.2 72 +16 +17 1011.9 1007.7
13 20.08 З 2-5
{6}
н/о н/о +14.7 +11.5 81 +14 +14 1013.0 1008.7
14 20.08 СЗ 3-5
{6}
н/о н/о +14.9 +10.3 74 +14 +14 1013.8 1009.5
15 20.08 З 3-5
{5}
40 км {ливн. осадки} 9/9 300 м
[Cu Sc]
+14.9 +9.3 69 +14 +15 1014.5 1010.2
16 20.08 З 3-5
{5}
н/о н/о +15.1 +8.9 66 +14 +14 1015.2 1010.9
17 20.08 З 3-6
{6}
н/о н/о +14.0 +9.3 73 +13 +13 1015.8 1011.5
18 20.08 З 2-2
{6}
20 км слаб. ливневой дождь 9/9 300 м
[Cu Sc]
+13.2 +10.3 83 +12 +12 1016.3 1012.0 +13.2 +16.9
19 20.08 СЗ 2-3
{3}
н/о н/о +12.7 +10.5 86 +12 +12 1016.9 1012.6
20 20.08 С 1-2
{4}
н/о н/о +12.4 +10.5 88 +12 +12 1017.8 1013.5
21 20.08 ЮВ 2-2
{2}
20 км слаб. ливневой дождь 9/9 300 м
[Cu Sc]
+12.1 +10.6 91 +11 +11 1018.3 1014.0
22 20.08 З 1-1
{2}
н/о н/о +11.9 +10.6 92 +12 +12 1018.8 1014.5
23 20.08 З 2-4
{4}
н/о н/о +11.6 +10.4 92 +10 +10 1019.4 1015.1
00 21.08 ЮЗ 1-1
{4}
н/о н/о +11.5 +10.3 92 +11 +11 1019.8 1015.5
01 21.08 ЮВ 1-1
{2}
н/о н/о +11.3 +10.1 92 +11 +11 1020.2 1015.9
02 21.08 ЮВ 2-2
{2}
н/о н/о +10.4 +9.2 92 +9 +9 1020.6 1016.2
03 21.08 ЮВ 2-2
{2}
н/о н/о +10.1 +8.7 91 +9 +9 1020.8 1016.4
04 21.08 ЮВ 2-3
{3}
н/о н/о +10.4 +8.7 89 +9 +9 1021.3 1016.9
05 21.08 ЮВ 2-3
{4}
н/о н/о +10.4 +8.5 88 +9 +9 1021.7 1017.3
06 21.08 ЮВ 2-2
{4}
30 км 9/4 1000 м
[Sc Ac trans]
+11.1 +8.9 86 +10 +10 1022.0 1017.7 +10.1 +13.2
07 21.08 ЮВ 2-3
{3}
н/о н/о +12.2 +9.0 81 +11 +11 1022.2 1017.9
08 21.08 ЮВ 3-4
{4}
н/о н/о +15.1 +7.9 62 +14 +14 1022.5 1018.2
09 21.08 Ю 3-5
{5}
30 км 9/8 1000 м
[Sc Ac trans]
+14.4 +7.1 62 +14 +14 1022.8 1018.5
10 21.08 З 1-3
{4}
н/о н/о +14.8 +6.7 58 +15 +15 1022.8 1018.5
11 21.08 Ю 1-2
{4}
н/о н/о +14.1 +7.6 65 +15 +15 1022.8 1018.5
12 21.08 З 1-3
{5}
30 км 9/9 1000 м
[Cu hum Ci fib]
+15.2 +6.9 58 +16 +17 1022.8 1018.5
13 21.08 Ю 2-4
{7}
н/о н/о +15.9 +6.7 54 +16 +16 1022.8 1018.5
14 21.08 Ю 3-6
{6}
н/о н/о +16.2 +7.2 55 +16 +16 1022.7 1018.4
15 21.08 Ю 4-6
{8}
45 км 6/6 1000 м
[Cu Sc]
+15.5 +7.0 57 +15 +16 1022.6 1018.3
16 21.08 Ю 5-8
{8}
н/о н/о +16.1 +6.7 54 +15 +15 1022.5 1018.2
17 21.08 Ю 5-7
{7}
н/о н/о +15.2 +6.2 55 +14 +14 1022.3 1018.0
18 21.08 Ю 4-5
{8}
35 км 1/1 1000 м
[Sc diur, vesp]
+14.5 +6.9 60 +13 +14 1021.8 1017.5 +11.0 +16.9
19 21.08 Ю 2-3
{6}
н/о н/о +13.3 +7.6 68 +13 +13 1021.5 1017.2
20 21.08 ЮВ 2-2
{3}
н/о н/о +11.8 +8.0 78 +11 +11 1021.1 1016.8
21 21.08 Ю 3-4
{4}
50 км 3/1 1000 м
[Sc diur, vesp Ac As]
+11.7 +7.6 76 +10 +10 1020.9 1016.6
22 21.08 ЮВ 3-5
{5}
н/о н/о +12.6 +7.4 71 +11 +11 1020.5 1016.2
23 21.08 Ю 4-5
{6}
н/о н/о +12.9 +6.7 66 +11 +11 1019.8 1015.5
00 22.08 ЮВ 5-8
{9}
н/о н/о +14.1 +7.2 63 +13 +13 1018.8 1014.5
01 22.08 Ю 5-6
{9}
н/о н/о +14.1 +7.5 64 +12 +12 1018.3 1014.0
02 22.08 Ю 5-6
{9}
н/о н/о +12.9 +9.4 79 +11 +11 1017.6 1013.3
03 22.08 ЮВ 6-12
{12}
н/о н/о +14.1 +9.3 73 +12 +12 1015.9 1011.6
04 22.08 Ю 5-8
{10}
н/о н/о +13.4 +10.2 81 +11 +11 1015.7 1011.4
05 22.08 ЮВ 6-11
{11}
н/о н/о +13.2 +10.6 84 +11 +11 1015.3 1011.0
06 22.08 ЮВ 5-7
{12}
20 км слаб. дождь 10/9 200 м
[Frnb As op]
+13.0 +10.9 87 +11 +11 1014.5 1010.2 +11.3 +14.5
07 22.08 ЮВ 5-8
{9}
н/о н/о +13.3 +11.3 88 +11 +11 1013.6 1009.3
08 22.08 Ю 5-9
{13}
н/о н/о +13.4 +11.3 87 +11 +11 1012.9 1008.6 0.8
09 22.08 Ю 6-9
{9}
25 км в посл. час дождь 10/8 300 м
[Cu Sc Ac As Ci sp]
+13.9 +11.3 84 +12 +12 1012.8 1008.6 4
10 22.08 Ю 6-8
{10}
н/о н/о +14.9 +12.2 84 +13 +13 1013.3 1009.0 2
11 22.08 Ю 5-7
{8}
н/о н/о +16.6 +12.3 76 +16 +16 1013.3 1009.1
12 22.08 Ю 5-7
{13}
30 км {дождь} 9/9 300 м
[Cb cap Ac As Ci sp]
+15.6 +12.1 80 +14 +15 1013.6 1009.3
13 22.08 Ю 4-7
{9}
н/о н/о +16.8 +11.8 72 +16 +16 1013.8 1009.6
14 22.08 Ю 4-7
{9}
н/о н/о +16.8 +10.7 67 +16 +16 1014.1 1009.9
15 22.08 Ю 5-8
{9}
30 км в посл. час ливневой дождь 8/6 600 м
[Cu med, cong Ac cuf Ci fib]
+16.6 +10.9 69 +16 +17 1014.3 1010.1
16 22.08 Ю 5-7
{8}
н/о н/о +15.7 +9.9 68 +15 +15 1014.3 1010.0
17 22.08 Ю 4-6
{8}
н/о н/о +15.4 +10.0 70 +14 +14 1014.2 1009.9
18 22.08 Ю 5-8
{10}
30 км {ливн. осадки} 8/6 600 м
[Cu med, cong Ac cuf Ci fib]
+15.3 +9.6 69 +14 +14 1014.0 1009.7 +13.0 +17.1
19 22.08 ЮВ 4-6
{10}
н/о н/о +14.5 +9.4 71 +13 +13 1013.6 1009.3
20 22.08 ЮВ 4-7
{9}
н/о н/о +13.4 +10.6 83 +12 +12 1013.7 1009.4 0.5
21 22.08 ЮВ 5-8
{8}
40 км слаб. ливневой дождь 10/6 300 м
[Cb cap Ac cuf]
+13.5 +11.2 86 +12 +12 1013.1 1008.8 0.8
22 22.08 ЮВ 4-6
{9}
н/о н/о +13.9 +12.0 88 +12 +12 1012.2 1007.9 0.2
23 22.08 -7
{7}
н/о н/о +14.1 +11.4 84 1011.4 1007.1 0.1
00 23.08 ЮВ 7-12
{12}
н/о н/о +13.9 +12.3 90 +12 +12 1010.8 1006.5 9
01 23.08 ЮВ 3-7
{9}
н/о н/о +15.2 +13.3 88 +14 +14 1011.2 1006.9 1
02 23.08 Ю 3-6
{9}
н/о н/о +15.4 +13.1 86 +15 +15 1011.3 1007.1
03 23.08 Ю 3-5
{6}
н/о н/о +15.2 +12.8 86 +14 +14 1011.9 1007.6
04 23.08 Ю 4-6
{6}
н/о н/о +14.9 +12.1 83 +14 +14 1012.5 1008.2
05 23.08 Ю 4-6
{6}
н/о н/о +14.5 +11.3 81 +13 +13 1013.0 1008.7
06 23.08 ЮВ 5-7
{9}
25 км слаб. ливневой дождь 10/9 300 м
[Cu Sc Ac cuf]
+14.6 +10.7 77 +13 +13 1013.8 1009.5 +12.9 +15.4 12
07 23.08 Ю 5-8
{10}
н/о н/о +14.8 +10.4 75 +13 +13 1014.8 1010.5
08 23.08 Ю 5-9
{9}
н/о н/о +15.4 +10.1 71 +14 +14 1015.5 1011.2
09 23.08 ЮВ 4-6
{8}
25 км осадки на расстоянии {ливн. осадки} 9/8 300 м
[Cu Sc Ac As]
+14.8 +10.7 76 +14 +14 1016.2 1011.9
10 23.08 Ю 4-7
{7}
н/о н/о +15.1 +10.7 75 +14 +14 1017.0 1012.7 0.2
11 23.08 ЮВ 4-6
{6}
н/о н/о +16.7 +12.3 75 +16 +16 1017.7 1013.3 0.1
12 23.08 Ю 3-6
{10}
30 км {ливн. осадки} 9/5 300 м
[Cu Sc Ac As]
+16.8 +10.0 64 +17 +18 1018.5 1014.2 0.3
13 23.08 Ю 4-6
{10}
н/о н/о +17.2 +10.2 63 +17 +17 1018.8 1014.5
14 23.08 Ю 5-7
{9}
н/о н/о +16.9 +11.1 69 +16 +16 1019.1 1014.8
15 23.08 Ю 6-8
{8}
25 км 10/10 1000 м
[Cu Sc]
+16.2 +11.8 75 +15 +15 1019.4 1015.1 0.1
16 23.08 ЮВ 3-4
{8}
н/о н/о +14.5 +12.6 88 +14 +14 1020.0 1015.7 2

 

Местоположение метеостанции Берген (Норвегия): широта 60.38 долгота 5.33 высота над уровнем моря 12 м.

В архиве по умолчанию представлена погода в Бергене за последнюю неделю. Архивные данные за месяц целиком и за предыдущие месяцы, начиная с января 2011 года, Вы можете получить, выбрав интересующий диапазон дат из раскрывающегося списка и нажав кнопку "Ввод!".


*Определитесь, кто Вы:
робот инопланетянин человек

Внимание! Время в таблицах - всемирное. Для получения местного времени необходимо прибавить поправку, которая равна 1 ч.

Смотрите также архив погоды в соседних городах и на ближайших метеорологических станциях:

Погода в Фоссмарке (Норвегия) (26 км)
Погода в Квамскогене (Норвегия) (35 км)
Погода в Эустеволле (Норвегия) (41 км)
Погода на Квамсое (Норвегия) (52 км)
Погода в Эванжере (Норвегия) (52 км)
Погода на Маяке Slatteroy (Норвегия) (54 км)
Погода в Федье (Норвегия) (56 км)
Погода в Булкене (Норвегия) (57 км)
Погода в Модалене (Норвегия) (64 км)
Погода в Воссевангене (Норвегия) (66 км)

Пояснения к столбцам:

Ветер - указаны скорость ветра в м/с - средняя за 10 мин, порывы в срок и между сроками (в фигурных скобках) и направление, откуда дует ветер: С - северный, СВ - северо-восточный, В - восточный, ЮВ - юго-восточный, Ю - южный, ЮЗ - юго-западный, З - западный, СЗ - северо-западный.
Видимость - горизонтальная дальность видимости в метрах или километрах. При видимости от 1 до 10 км при отсутствии осадков обычно наблюдается дымка, при ухудшении видимости до 1 км и менее - туман. В сухую погоду видимость может ухудшаться дымом, пылью или мглою.
Явления - указаны атмосферные явления, наблюдавшиеся в срок или в последний час перед сроком; фигурными скобками обозначены явления, наблюдавшиеся между сроками (за 1-3 часа до срока); квадратными скобками обозначены град или гололедные отложения с указанием их диаметра в мм.
Облачность - указаны через наклонную черту общая и нижняя облачность в баллах и высота нижней границы облаков в метрах; квадратными скобками обозначены формы облаков: Ci - перистые, Cs - перисто-слоистые, Cc - перисто-кучевые, Ac - высококучевые, As - высокослоистые, Sc - слоисто-кучевые, Ns - слоисто-дождевые, Cu - кучевые, Cb - кучево-дождевые. Подробнее классификацию облаков см. в Атласе облаков (PDF).
T - Температура воздуха - температура, измеренная на высоте 2 м над землей.
Td - Температура точки росы - температура, при понижении до которой содержащийся в воздухе водяной пар достигнет насыщения.
f - Относительная влажность воздуха - влажноcть воздуха, измеренная на высоте 2 м над землей.
Te - Эффективная температура - температура, которую ощущает одетый по сезону человек в тени. Характеристика душности погоды. При расчете учитывается влияние влажности воздуха и скорости ветра на теплоощущения человека.
Tes - Эффективная температура на солнце - температура, которую ощущает человек, с поправкой на солнечный нагрев. Характеристика знойности погоды. Зависит от высоты солнца над горизонтом, облачности и скорости ветра. Ночью, в пасмурную погоду, а также при ветре 12 м/с и более поправка равна нулю.
P - Атмосферное давление - приведенное к уровню моря атмосферное давление.
Po - Атмосферное давление - измеренное на уровне метеостанции атмосферное давление.
Tmin - Минимальная температура - минимум температуры воздуха на высоте 2 м над землей.
Tmax - Максимальная температура - максимум температуры воздуха на высоте 2 м над землей.
R - Количество осадков - Количество выпавших осадков за период времени, мм. При наведении курсора мыши на число - период времени, за который выпало указанное количество осадков.
R24 - Количество осадков - Количество выпавших осадков за 24 часа, мм.
S - Снежный покров - Высота снежного покрова, см. При наведении курсора мыши на число - состояние снежного покрова и степень покрытия местности в баллах.